Regional Weather Roundup
Issued by NWS Goodland, KS

Home | Current Version | Previous Version | Text Only | Print | Product List | Glossary On
Versions: 1 2 3 4 5 6 7 8 9 10 11 12 13 14 15 16 17 18 19 20 21 22 23 24 25 26 27 28 29 30 31 32 33 34 35 36 37 38 39 40 41 42 43 44 45 46 47 48 49 50
000
ASUS43 KGLD 190308
RWRGLD

GOODLAND FORECAST AREA HOURLY WEATHER ROUNDUP
NATIONAL WEATHER SERVICE GOODLAND KS
800 PM MST WED JAN 18 2017

...OFFICIAL OBSERVATIONS...

CITY           SKY/WX    TMP DP  RH WIND       PRES   REMARKS
GOODLAND KS    CLOUDY    36  30  79 S7        29.75F
HILL CITY KS   CLOUDY    43  40  89 S8        29.81F
IMPERIAL NEB   CLOUDY    29  26  89 SE3       29.74F
MCCOOK NEB     CLOUDY    35  34  96 S6        29.78F
AKRON CO       CLOUDY    32  16  51 S7        29.72F
BURLINGTON CO  CLOUDY    34  31  88 S9        29.74F
LIMON CO       CLOUDY    19  17  92 NW3       29.73F
$$

...UNOFFICIAL OBSERVATIONS...

CITY           SKY/WX    TMP DP  RH WIND       PRES   REMARKS
LENORA KS        N/A     39  32  76 SE5         N/A
SHARON SPRINGS   N/A     32  30  92 SW5         N/A
TRENTON NEB      N/A     34  32  92 SW5         N/A
KIT CARSON CO    N/A     30  27  90 CALM        N/A
YUMA CO        FAIR      19  14  79 SW7       29.73F
$$



USA.gov is the U.S. government's official web portal to all federal, state and local government web resources and services.